Weather History for Cheyenne, WY

Change the Weather History Date:

Wednesday, June 19, 2013

  Actual Average Record
Temperature  
Mean Temperature 71 °F 63 °F  
Max Temperature 89 °F 77 °F 97 °F (1880)
Min Temperature 52 °F 50 °F 32 °F (1876)
Degree Days  
Heating Degree Days 0 3  
Month to date heating degree days 58 110  
Since 1 June heating degree days 58 110  
Since 1 July heating degree days 7180 7087  
Cooling Degree Days 6 2  
Month to date cooling degree days 44 20  
Year to date cooling degree days 50 23  
Since 1 June cooling degree days 44 20  
Growing Degree Days 20 (Base 50)    
Moisture  
Dew Point 42 °F    
Average Humidity 49    
Maximum Humidity 89    
Minimum Humidity 9    
Precipitation  
Precipitation 0.00 in 0.06 in 1.40 in (2011)
Month to date precipitation 0.15 1.63  
Year to date precipitation 5.64 7.60  
Snow  
Snow 0.00 in 0.00 in - ()
Month to date snowfall 0.0 0.0  
Since 1 July snowfall 87.1 60.3  
Snow Depth 0.00 in    
Sea Level Pressure  
Sea Level Pressure 29.66 in    
Wind  
Wind Speed 15 mph (South)    
Max Wind Speed 25 mph    
Max Gust Speed 35 mph    
Visibility 10 miles    
Events      
T = Trace of Precipitation, MM = Missing Value Source: NWS Daily Summary

Daily Weather History Graph

Daily Weather History Graph

Search for Another Location

Airport:

Trip Planner

Search our weather history database for the weather conditions in past years. The results will help you decide how hot, cold, wet, or windy it might be!

Date:

Astronomy

Jun. 19, 2013 Rise Set
Actual Time 5:26 AM MDT 8:35 PM MDT
Civil Twilight 4:52 AM MDT 9:08 PM MDT
Nautical Twilight 4:09 AM MDT 9:52 PM MDT
Astronomical Twilight 3:17 AM MDT 10:43 PM MDT
Moon 4:29 PM MDT (6/19) 2:14 AM MDT (6/19)
Length of Visible Light 16h 16m
Length of Day
15h 08m
Waxing Gibbous, 81% of the Moon is Illuminated
Jun 19
Waxing Gibbous
Jun 23
Full
Jun 29
Last Quarter
Jul 8
New
Jul 15
First Quarter

Hourly Weather History & Observations

Time (MDT) Temp. Dew Point Humidity Pressure Visibility Wind Dir Wind Speed Gust Speed Precip Events Conditions
12:53 AM 55.0 °F 48.9 °F 80% 29.82 in 10.0 mi SE 17.3 mph 23.0 mph N/A   Clear
1:53 AM 55.0 °F 48.0 °F 77% 29.82 in 10.0 mi SSE 13.8 mph 20.7 mph N/A   Clear
2:53 AM 54.0 °F 46.9 °F 77% 29.81 in 10.0 mi South 15.0 mph - N/A   Clear
3:53 AM 53.1 °F 46.9 °F 80% 29.79 in 10.0 mi South 12.7 mph 23.0 mph N/A   Clear
4:53 AM 53.1 °F 48.0 °F 83% 29.77 in 10.0 mi SSW 12.7 mph 21.9 mph N/A   Clear
5:53 AM 52.0 °F 48.0 °F 86% 29.78 in 10.0 mi SSW 10.4 mph - N/A   Clear
6:53 AM 54.0 °F 48.9 °F 83% 29.74 in 10.0 mi SSW 13.8 mph 21.9 mph N/A   Clear
7:53 AM 57.0 °F 50.0 °F 77% 29.73 in 10.0 mi SSW 17.3 mph - N/A   Clear
8:53 AM 64.0 °F 48.9 °F 58% 29.72 in 10.0 mi SSW 17.3 mph - N/A   Clear
9:53 AM 71.1 °F 48.0 °F 44% 29.70 in 10.0 mi SSW 11.5 mph - N/A   Clear
10:53 AM 75.0 °F 45.0 °F 34% 29.68 in 10.0 mi South 10.4 mph 20.7 mph N/A   Clear
11:53 AM 80.1 °F 43.0 °F 27% 29.65 in 10.0 mi South 13.8 mph 24.2 mph N/A   Clear
12:53 PM 84.0 °F 36.0 °F 18% 29.61 in 10.0 mi South 19.6 mph 27.6 mph N/A   Clear
1:53 PM 86.0 °F 28.9 °F 13% 29.59 in 10.0 mi South 21.9 mph 28.8 mph N/A   Clear
2:53 PM 86.0 °F 24.1 °F 10% 29.58 in 10.0 mi South 19.6 mph 25.3 mph N/A   Clear
3:53 PM 88.0 °F 21.9 °F 9% 29.55 in 10.0 mi South 15.0 mph 21.9 mph N/A   Clear
4:53 PM 89.1 °F 24.1 °F 9% 29.53 in 10.0 mi SSE 16.1 mph 27.6 mph N/A   Clear
5:53 PM 88.0 °F 23.0 °F 9% 29.53 in 10.0 mi South 17.3 mph 24.2 mph N/A   Clear
6:53 PM 86.0 °F 24.1 °F 10% 29.52 in 10.0 mi South 15.0 mph 20.7 mph N/A   Clear
7:53 PM 82.0 °F 28.9 °F 14% 29.53 in 10.0 mi SSE 10.4 mph 20.7 mph N/A   Clear
8:53 PM 75.9 °F 54.0 °F 46% 29.55 in 10.0 mi SSE 20.7 mph 29.9 mph N/A   Clear
9:53 PM 75.0 °F 51.1 °F 43% 29.57 in 10.0 mi SSE 25.3 mph 34.5 mph N/A   Clear
10:00 PM 75.2 °F 51.8 °F 44% 29.86 in 10.0 mi SSE 19.6 mph 34.5 mph N/A   Clear
10:53 PM 70.0 °F 53.1 °F 55% 29.59 in 10.0 mi SE 11.5 mph - N/A   Clear
11:53 PM 66.0 °F 54.0 °F 65% 29.59 in 10.0 mi SE 9.2 mph - N/A   Clear